Time,TemperatureF,DewpointF,PressureIn,WindDirection,WindDirectionDegrees,WindSpeedMPH,WindSpeedGustMPH,Humidity,HourlyPrecipIn,Conditions,Clouds,dailyrainin,SoftwareType,DateUTC
2013-03-23 00:03:00,28.0,14.0,30.12,NW,317,0.0,6.0,55,0.00,,,0.00,,2013-03-23 04:03:00,
2013-03-23 00:13:00,28.0,14.0,30.12,NW,317,0.0,6.0,55,0.00,,,0.00,,2013-03-23 04:13:00,
2013-03-23 00:23:00,28.0,14.0,30.12,NW,312,0.0,6.0,54,0.00,,,0.00,,2013-03-23 04:23:00,
2013-03-23 00:32:00,29.0,15.0,30.13,WNW,291,0.0,5.0,55,0.00,,,0.00,,2013-03-23 04:32:00,
2013-03-23 00:43:00,29.0,15.0,30.13,WNW,291,0.0,5.0,55,0.00,,,0.00,,2013-03-23 04:43:00,
2013-03-23 00:53:00,28.0,14.0,30.12,North,359,1.0,8.0,55,0.00,,,0.00,,2013-03-23 04:53:00,
2013-03-23 01:02:00,27.0,14.0,30.11,NW,305,0.0,5.0,57,0.00,,,0.00,,2013-03-23 05:02:00,
2013-03-23 01:12:00,27.0,14.0,30.11,NW,305,0.0,5.0,57,0.00,,,0.00,,2013-03-23 05:12:00,
2013-03-23 01:22:00,27.0,15.0,30.11,WSW,243,0.0,6.0,59,0.00,,,0.00,,2013-03-23 05:22:00,
2013-03-23 01:32:00,28.0,14.0,30.11,WNW,293,0.0,8.0,55,0.00,,,0.00,,2013-03-23 05:32:00,
2013-03-23 01:42:00,28.0,14.0,30.11,WNW,293,0.0,8.0,55,0.00,,,0.00,,2013-03-23 05:42:00,
2013-03-23 01:52:00,28.0,14.0,30.11,North,359,1.0,7.0,54,0.00,,,0.00,,2013-03-23 05:52:00,
2013-03-23 02:02:00,28.0,13.0,30.11,West,262,0.0,3.0,52,0.00,,,0.00,,2013-03-23 06:02:00,
2013-03-23 02:12:00,28.0,13.0,30.11,West,262,0.0,3.0,52,0.00,,,0.00,,2013-03-23 06:12:00,
2013-03-23 02:22:00,28.0,13.0,30.11,West,262,0.0,0.0,53,0.00,,,0.00,,2013-03-23 06:22:00,
2013-03-23 02:32:00,28.0,13.0,30.11,West,263,0.0,0.0,52,0.00,,,0.00,,2013-03-23 06:32:00,
2013-03-23 02:42:00,28.0,13.0,30.11,West,263,0.0,0.0,52,0.00,,,0.00,,2013-03-23 06:42:00,
2013-03-23 02:52:00,27.0,16.0,30.11,West,262,0.0,0.0,62,0.00,,,0.00,,2013-03-23 06:52:00,
2013-03-23 03:03:00,26.0,16.0,30.11,West,263,0.0,0.0,64,0.00,,,0.00,,2013-03-23 07:03:00,
2013-03-23 03:12:00,26.0,16.0,30.11,West,263,0.0,0.0,64,0.00,,,0.00,,2013-03-23 07:12:00,
2013-03-23 03:22:00,25.0,16.0,30.11,West,262,0.0,0.0,68,0.00,,,0.00,,2013-03-23 07:22:00,
2013-03-23 03:32:00,24.0,16.0,30.10,West,262,0.0,0.0,70,0.00,,,0.00,,2013-03-23 07:32:00,
2013-03-23 03:42:00,24.0,16.0,30.10,West,262,0.0,0.0,70,0.00,,,0.00,,2013-03-23 07:42:00,
2013-03-23 03:52:00,24.0,16.0,30.10,West,262,0.0,0.0,70,0.00,,,0.00,,2013-03-23 07:52:00,
2013-03-23 04:03:00,25.0,13.0,30.10,WNW,302,0.0,3.0,60,0.00,,,0.00,,2013-03-23 08:03:00,
2013-03-23 04:13:00,25.0,13.0,30.10,WNW,302,0.0,3.0,60,0.00,,,0.00,,2013-03-23 08:13:00,
2013-03-23 04:22:00,26.0,13.0,30.09,WNW,287,0.0,1.0,58,0.00,,,0.00,,2013-03-23 08:22:00,
2013-03-23 04:32:00,26.0,14.0,30.09,WNW,287,0.0,0.0,59,0.00,,,0.00,,2013-03-23 08:32:00,
2013-03-23 04:42:00,26.0,14.0,30.09,WNW,287,0.0,0.0,59,0.00,,,0.00,,2013-03-23 08:42:00,
2013-03-23 04:52:00,25.0,15.0,30.09,WNW,287,0.0,0.0,65,0.00,,,0.00,,2013-03-23 08:52:00,
2013-03-23 05:02:00,24.0,15.0,30.08,WNW,287,0.0,0.0,68,0.00,,,0.00,,2013-03-23 09:02:00,
2013-03-23 05:12:00,24.0,15.0,30.08,WNW,287,0.0,0.0,68,0.00,,,0.00,,2013-03-23 09:12:00,
2013-03-23 05:22:00,23.0,15.0,30.09,WNW,288,0.0,0.0,71,0.00,,,0.00,,2013-03-23 09:22:00,
2013-03-23 05:33:00,23.0,15.0,30.09,WNW,287,0.0,0.0,70,0.00,,,0.00,,2013-03-23 09:33:00,
2013-03-23 05:43:00,23.0,15.0,30.09,WNW,287,0.0,0.0,70,0.00,,,0.00,,2013-03-23 09:43:00,
2013-03-23 05:53:00,22.0,15.0,30.09,WNW,287,0.0,0.0,73,0.00,,,0.00,,2013-03-23 09:53:00,
2013-03-23 06:03:00,22.0,15.0,30.09,WNW,287,0.0,0.0,75,0.00,,,0.00,,2013-03-23 10:03:00,
2013-03-23 06:13:00,22.0,15.0,30.09,WNW,287,0.0,0.0,75,0.00,,,0.00,,2013-03-23 10:13:00,
2013-03-23 06:23:00,21.0,15.0,30.09,WNW,288,0.0,0.0,76,0.00,,,0.00,,2013-03-23 10:23:00,
2013-03-23 06:34:00,22.0,15.0,30.10,WNW,287,0.0,0.0,75,0.00,,,0.00,,2013-03-23 10:34:00,
2013-03-23 06:43:00,22.0,15.0,30.10,WNW,287,0.0,0.0,75,0.00,,,0.00,,2013-03-23 10:43:00,
2013-03-23 06:52:00,23.0,16.0,30.09,WNW,287,0.0,0.0,73,0.00,,,0.00,,2013-03-23 10:52:00,
2013-03-23 07:03:00,23.0,16.0,30.10,WNW,287,0.0,0.0,75,0.00,,,0.00,,2013-03-23 11:03:00,
2013-03-23 07:12:00,23.0,16.0,30.10,WNW,287,0.0,0.0,75,0.00,,,0.00,,2013-03-23 11:12:00,
2013-03-23 07:22:00,23.0,14.0,30.11,WNW,288,0.0,0.0,69,0.00,,,0.00,,2013-03-23 11:22:00,
2013-03-23 07:32:00,23.0,16.0,30.10,WNW,288,0.0,0.0,74,0.00,,,0.00,,2013-03-23 11:32:00,
2013-03-23 07:42:00,23.0,16.0,30.10,WNW,288,0.0,0.0,74,0.00,,,0.00,,2013-03-23 11:42:00,
2013-03-23 07:51:00,23.0,16.0,30.10,WNW,287,0.0,0.0,74,0.00,,,0.00,,2013-03-23 11:51:00,
2013-03-23 08:02:00,23.0,16.0,30.11,WNW,287,0.0,0.0,74,0.00,,,0.00,,2013-03-23 12:02:00,
2013-03-23 08:13:00,23.0,16.0,30.11,WNW,287,0.0,0.0,74,0.00,,,0.00,,2013-03-23 12:13:00,
2013-03-23 08:22:00,23.0,16.0,30.11,WNW,287,0.0,0.0,75,0.00,,,0.00,,2013-03-23 12:22:00,
2013-03-23 08:33:00,23.0,16.0,30.11,WNW,287,0.0,0.0,74,0.00,,,0.00,,2013-03-23 12:33:00,
2013-03-23 08:42:00,23.0,16.0,30.11,WNW,287,0.0,0.0,74,0.00,,,0.00,,2013-03-23 12:42:00,
2013-03-23 08:52:00,24.0,18.0,30.11,North,359,0.0,1.0,77,0.00,,,0.00,,2013-03-23 12:52:00,
2013-03-23 09:03:00,25.0,18.0,30.12,WNW,291,0.0,0.0,75,0.00,,,0.00,,2013-03-23 13:03:00,
2013-03-23 09:12:00,25.0,18.0,30.12,WNW,291,0.0,0.0,75,0.00,,,0.00,,2013-03-23 13:12:00,
2013-03-23 09:23:00,27.0,17.0,30.13,North,359,0.0,2.0,65,0.00,,,0.00,,2013-03-23 13:23:00,
2013-03-23 09:33:00,28.0,16.0,30.13,NW,315,0.0,1.0,61,0.00,,,0.00,,2013-03-23 13:33:00,
2013-03-23 09:43:00,28.0,16.0,30.13,NW,315,0.0,1.0,61,0.00,,,0.00,,2013-03-23 13:43:00,
2013-03-23 09:53:00,29.0,14.0,30.14,West,261,1.0,5.0,53,0.00,,,0.00,,2013-03-23 13:53:00,
2013-03-23 10:03:00,30.0,15.0,30.14,WNW,282,1.0,6.0,52,0.00,,,0.00,,2013-03-23 14:03:00,
2013-03-23 10:12:00,30.0,15.0,30.14,WNW,282,1.0,6.0,52,0.00,,,0.00,,2013-03-23 14:12:00,
2013-03-23 10:22:00,31.0,15.0,30.13,NW,309,1.0,7.0,50,0.00,,,0.00,,2013-03-23 14:22:00,
2013-03-23 10:32:00,31.0,14.0,30.13,WNW,293,0.0,7.0,49,0.00,,,0.00,,2013-03-23 14:32:00,
2013-03-23 10:43:00,31.0,14.0,30.13,WNW,293,0.0,7.0,49,0.00,,,0.00,,2013-03-23 14:43:00,
2013-03-23 10:52:00,32.0,15.0,30.12,NW,322,0.0,5.0,49,0.00,,,0.00,,2013-03-23 14:52:00,
2013-03-23 11:04:00,33.0,15.0,30.12,WNW,285,1.0,7.0,46,0.00,,,0.00,,2013-03-23 15:04:00,
2013-03-23 11:13:00,33.0,15.0,30.12,WNW,285,1.0,7.0,46,0.00,,,0.00,,2013-03-23 15:13:00,
2013-03-23 11:22:00,34.0,14.0,30.11,WNW,289,1.0,9.0,44,0.00,,,0.00,,2013-03-23 15:22:00,
2013-03-23 11:33:00,35.0,15.0,30.11,NW,318,0.0,5.0,44,0.00,,,0.00,,2013-03-23 15:33:00,
2013-03-23 11:44:00,35.0,15.0,30.11,NW,318,0.0,5.0,44,0.00,,,0.00,,2013-03-23 15:44:00,
2013-03-23 11:52:00,35.0,15.0,30.10,WNW,289,0.0,6.0,44,0.00,,,0.00,,2013-03-23 15:52:00,
2013-03-23 12:03:00,35.0,16.0,30.11,NW,313,0.0,5.0,46,0.00,,,0.00,,2013-03-23 16:03:00,
2013-03-23 12:13:00,35.0,16.0,30.11,NW,313,0.0,5.0,46,0.00,,,0.00,,2013-03-23 16:13:00,
2013-03-23 12:23:00,35.0,16.0,30.10,NW,318,1.0,8.0,45,0.00,,,0.00,,2013-03-23 16:23:00,
2013-03-23 12:33:00,35.0,16.0,30.10,NW,318,1.0,8.0,45,0.00,,,0.00,,2013-03-23 16:33:00,
2013-03-23 12:43:00,35.0,16.0,30.10,NW,318,1.0,8.0,45,0.00,,,0.00,,2013-03-23 16:43:00,
2013-03-23 12:53:00,37.0,14.0,30.09,NW,310,0.0,6.0,39,0.00,,,0.00,,2013-03-23 16:53:00,
2013-03-23 13:03:00,37.0,14.0,30.09,NW,313,1.0,8.0,39,0.00,,,0.00,,2013-03-23 17:03:00,
2013-03-23 13:12:00,39.0,16.0,30.09,North,359,3.0,8.0,38,0.00,,,0.00,,2013-03-23 17:12:00,
2013-03-23 13:23:00,39.0,16.0,30.09,North,359,3.0,8.0,38,0.00,,,0.00,,2013-03-23 17:23:00,
2013-03-23 13:33:00,40.0,18.0,30.08,North,354,2.0,8.0,40,0.00,,,0.00,,2013-03-23 17:33:00,
2013-03-23 13:43:00,40.0,18.0,30.08,North,354,2.0,8.0,40,0.00,,,0.00,,2013-03-23 17:43:00,
2013-03-23 13:52:00,40.0,16.0,30.08,WSW,251,1.0,6.0,38,0.00,,,0.00,,2013-03-23 17:52:00,
2013-03-23 14:03:00,41.0,17.0,30.07,NW,321,1.0,10.0,38,0.00,,,0.00,,2013-03-23 18:03:00,
2013-03-23 14:12:00,41.0,17.0,30.07,NW,321,1.0,10.0,38,0.00,,,0.00,,2013-03-23 18:12:00,
2013-03-23 14:22:00,41.0,17.0,30.06,SW,220,2.0,9.0,37,0.00,,,0.00,,2013-03-23 18:22:00,
2013-03-23 14:32:00,42.0,19.0,30.06,NW,304,2.0,9.0,40,0.00,,,0.00,,2013-03-23 18:32:00,
2013-03-23 14:43:00,42.0,19.0,30.06,NW,304,2.0,9.0,40,0.00,,,0.00,,2013-03-23 18:43:00,
2013-03-23 14:52:00,42.0,19.0,30.05,NNE,16,1.0,5.0,39,0.00,,,0.00,,2013-03-23 18:52:00,
2013-03-23 15:03:00,42.0,20.0,30.04,SW,218,0.0,9.0,41,0.00,,,0.00,,2013-03-23 19:03:00,
2013-03-23 15:13:00,42.0,20.0,30.04,SW,218,0.0,9.0,41,0.00,,,0.00,,2013-03-23 19:13:00,
2013-03-23 15:23:00,43.0,19.0,30.03,WNW,292,1.0,8.0,38,0.00,,,0.00,,2013-03-23 19:23:00,
2013-03-23 15:32:00,43.0,19.0,30.03,NW,318,3.0,9.0,38,0.00,,,0.00,,2013-03-23 19:32:00,
2013-03-23 15:42:00,43.0,19.0,30.03,NW,318,3.0,9.0,38,0.00,,,0.00,,2013-03-23 19:42:00,
2013-03-23 15:52:00,44.0,21.0,30.03,NW,321,1.0,7.0,40,0.00,,,0.00,,2013-03-23 19:52:00,
2013-03-23 16:03:00,44.0,20.0,30.03,NW,325,1.0,8.0,38,0.00,,,0.00,,2013-03-23 20:03:00,
2013-03-23 16:13:00,44.0,20.0,30.03,NW,325,1.0,8.0,38,0.00,,,0.00,,2013-03-23 20:13:00,
2013-03-23 16:22:00,45.0,20.0,30.02,North,359,2.0,9.0,37,0.00,,,0.00,,2013-03-23 20:22:00,
2013-03-23 16:32:00,46.0,21.0,30.02,North,359,2.0,6.0,36,0.00,,,0.00,,2013-03-23 20:32:00,
2013-03-23 16:43:00,46.0,21.0,30.02,North,359,2.0,6.0,36,0.00,,,0.00,,2013-03-23 20:43:00,
2013-03-23 16:52:00,45.0,20.0,30.02,SW,227,1.0,10.0,36,0.00,,,0.00,,2013-03-23 20:52:00,
2013-03-23 17:02:00,45.0,20.0,30.01,WNW,291,3.0,8.0,36,0.00,,,0.00,,2013-03-23 21:02:00,
2013-03-23 17:12:00,45.0,20.0,30.01,WNW,291,3.0,8.0,36,0.00,,,0.00,,2013-03-23 21:12:00,
2013-03-23 17:22:00,45.0,20.0,30.01,WNW,291,3.0,8.0,36,0.00,,,0.00,,2013-03-23 21:22:00,
2013-03-23 17:33:00,46.0,20.0,30.01,NNW,335,1.0,10.0,35,0.00,,,0.00,,2013-03-23 21:33:00,
2013-03-23 17:43:00,46.0,20.0,30.01,NNW,335,1.0,10.0,35,0.00,,,0.00,,2013-03-23 21:43:00,
2013-03-23 17:54:00,46.0,21.0,30.00,SW,225,2.0,12.0,36,0.00,,,0.00,,2013-03-23 21:54:00,
2013-03-23 18:03:00,46.0,21.0,30.00,West,273,1.0,7.0,36,0.00,,,0.00,,2013-03-23 22:03:00,
2013-03-23 18:13:00,46.0,21.0,30.00,West,273,1.0,7.0,36,0.00,,,0.00,,2013-03-23 22:13:00,
2013-03-23 18:23:00,45.0,21.0,30.00,NW,326,1.0,5.0,38,0.00,,,0.00,,2013-03-23 22:23:00,
2013-03-23 18:33:00,45.0,21.0,30.00,SW,222,0.0,8.0,38,0.00,,,0.00,,2013-03-23 22:33:00,
2013-03-23 18:42:00,45.0,21.0,30.00,SW,222,0.0,8.0,38,0.00,,,0.00,,2013-03-23 22:42:00,
2013-03-23 18:53:00,44.0,21.0,30.01,West,280,0.0,7.0,40,0.00,,,0.00,,2013-03-23 22:53:00,
2013-03-23 19:02:00,44.0,22.0,30.01,SW,223,0.0,6.0,41,0.00,,,0.00,,2013-03-23 23:02:00,
2013-03-23 19:13:00,44.0,22.0,30.01,SW,223,0.0,6.0,41,0.00,,,0.00,,2013-03-23 23:13:00,
2013-03-23 19:23:00,43.0,22.0,30.01,North,359,0.0,3.0,42,0.00,,,0.00,,2013-03-23 23:23:00,
2013-03-23 19:33:00,43.0,22.0,30.01,NW,316,0.0,0.0,43,0.00,,,0.00,,2013-03-23 23:33:00,
2013-03-23 19:43:00,43.0,22.0,30.01,NW,316,0.0,0.0,43,0.00,,,0.00,,2013-03-23 23:43:00,
2013-03-23 19:52:00,42.0,22.0,30.01,NW,315,0.0,0.0,44,0.00,,,0.00,,2013-03-23 23:52:00,
2013-03-23 20:02:00,42.0,22.0,30.01,NW,315,0.0,0.0,44,0.00,,,0.00,,2013-03-24 00:02:00,
2013-03-23 20:13:00,42.0,22.0,30.01,NW,315,0.0,0.0,44,0.00,,,0.00,,2013-03-24 00:13:00,
2013-03-23 20:23:00,39.0,22.0,30.02,North,359,0.0,0.0,50,0.00,,,0.00,,2013-03-24 00:23:00,
2013-03-23 20:33:00,38.0,22.0,30.03,NW,316,0.0,0.0,51,0.00,,,0.00,,2013-03-24 00:33:00,
2013-03-23 20:42:00,38.0,22.0,30.03,NW,316,0.0,0.0,51,0.00,,,0.00,,2013-03-24 00:42:00,
2013-03-23 20:52:00,36.0,21.0,30.03,NW,315,0.0,0.0,55,0.00,,,0.00,,2013-03-24 00:52:00,
2013-03-23 21:02:00,35.0,22.0,30.04,NW,316,0.0,0.0,58,0.00,,,0.00,,2013-03-24 01:02:00,
2013-03-23 21:12:00,35.0,22.0,30.04,NW,316,0.0,0.0,58,0.00,,,0.00,,2013-03-24 01:12:00,
2013-03-23 21:22:00,34.0,22.0,30.04,NW,316,0.0,0.0,60,0.00,,,0.00,,2013-03-24 01:22:00,
2013-03-23 21:33:00,34.0,17.0,30.04,NW,316,0.0,0.0,50,0.00,,,0.00,,2013-03-24 01:33:00,
2013-03-23 21:43:00,34.0,17.0,30.04,NW,316,0.0,0.0,50,0.00,,,0.00,,2013-03-24 01:43:00,
2013-03-23 21:52:00,35.0,17.0,30.05,NW,316,0.0,0.0,47,0.00,,,0.00,,2013-03-24 01:52:00,
2013-03-23 22:03:00,35.0,16.0,30.05,North,359,0.0,1.0,45,0.00,,,0.00,,2013-03-24 02:03:00,
2013-03-23 22:12:00,35.0,16.0,30.05,North,359,0.0,1.0,45,0.00,,,0.00,,2013-03-24 02:12:00,
2013-03-23 22:22:00,35.0,14.0,30.05,NW,316,0.0,0.0,41,0.00,,,0.00,,2013-03-24 02:22:00,
2013-03-23 22:32:00,36.0,13.0,30.05,North,359,0.0,0.0,39,0.00,,,0.00,,2013-03-24 02:32:00,
2013-03-23 22:42:00,36.0,13.0,30.05,North,359,0.0,0.0,39,0.00,,,0.00,,2013-03-24 02:42:00,
2013-03-23 22:52:00,36.0,13.0,30.05,North,359,0.0,0.0,39,0.00,,,0.00,,2013-03-24 02:52:00,
2013-03-23 23:03:00,36.0,16.0,30.05,SE,132,0.0,1.0,44,0.00,,,0.00,,2013-03-24 03:03:00,
2013-03-23 23:13:00,36.0,16.0,30.05,SE,132,0.0,1.0,44,0.00,,,0.00,,2013-03-24 03:13:00,
2013-03-23 23:23:00,34.0,18.0,30.05,SE,132,0.0,0.0,51,0.00,,,0.00,,2013-03-24 03:23:00,
2013-03-23 23:33:00,34.0,20.0,30.05,SE,132,0.0,1.0,55,0.00,,,0.00,,2013-03-24 03:33:00,
2013-03-23 23:42:00,34.0,20.0,30.05,SE,132,0.0,1.0,55,0.00,,,0.00,,2013-03-24 03:42:00,
2013-03-23 23:53:00,33.0,20.0,30.05,SE,132,0.0,0.0,58,0.00,,,0.00,,2013-03-24 03:53:00,